Weather History for Gainesville, GA

Change the Weather History Date:

Wednesday, February 13, 2013

  Actual Average Record
Temperature  
Mean Temperature 44 °F 45 °F  
Max Temperature 50 °F 55 °F 75 °F (1938)
Min Temperature 36 °F 36 °F 10 °F (1955)
Degree Days  
Heating Degree Days 22 20  
Month to date heating degree days 274  
Since 1 July heating degree days 2192  
Moisture  
Dew Point 40 °F    
Average Humidity 88    
Maximum Humidity 100    
Minimum Humidity 71    
Precipitation  
Precipitation 0.06 in 0.16 in 4.14 in (1966)
Month to date precipitation 2.06  
Year to date precipitation 7.09  
Snow  
Snow 0.00 in - - ()
Month to date snowfall  
Since 1 July snowfall  
Snow Depth -    
Sea Level Pressure  
Sea Level Pressure 29.81 in    
Wind  
Wind Speed 9 mph (NE)    
Max Wind Speed 21 mph    
Max Gust Speed 29 mph    
Visibility 6 miles    
Events Rain    
T = Trace of Precipitation, MM = Missing Value Source: NWS Daily Summary

Daily Weather History Graph

Daily Weather History Graph

Search for Another Location

Airport:

Trip Planner

Search our weather history database for the weather conditions in past years. The results will help you decide how hot, cold, wet, or windy it might be!

Date:

Astronomy

Feb. 13, 2013 Rise Set
Actual Time 7:22 AM EST 6:17 PM EST
Civil Twilight 6:56 AM EST 6:43 PM EST
Nautical Twilight 6:26 AM EST 7:12 PM EST
Astronomical Twilight 5:57 AM EST 7:41 PM EST
Moon 9:03 AM EST (2/13) 10:05 PM EST (2/13)
Length of Visible Light 11h 46m
Length of Day
10h 55m
Waxing Crescent, 13% of the Moon is Illuminated
Feb 13
Waxing Crescent
Feb 17
First Quarter
Feb 25
Full
Mar 4
Last Quarter
Mar 11
New

Hourly Weather History & Observations

Time (EST) Temp. Windchill Dew Point Humidity Pressure Visibility Wind Dir Wind Speed Gust Speed Precip Events Conditions
12:53 AM 43.0 °F 37.7 °F 39.9 °F 89% 29.86 in 10.0 mi East 9.2 mph - N/A   Overcast
1:27 AM 42.8 °F 38.0 °F 39.2 °F 87% 29.87 in 10.0 mi East 8.1 mph - N/A   Overcast
1:53 AM 43.0 °F 37.7 °F 39.9 °F 89% 29.85 in 10.0 mi East 9.2 mph - N/A   Overcast
2:16 AM 42.8 °F 36.2 °F 39.2 °F 87% 29.86 in 3.0 mi East 12.7 mph - N/A   Overcast
2:31 AM 42.8 °F 35.4 °F 39.2 °F 87% 29.83 in 2.5 mi East 15.0 mph - 0.00 in   Overcast
2:45 AM 42.8 °F 36.6 °F 39.2 °F 87% 29.83 in 2.5 mi East 11.5 mph - 0.00 in   Overcast
2:53 AM 42.1 °F 35.2 °F 39.9 °F 92% 29.82 in 2.5 mi East 12.7 mph - 0.00 in   Overcast
3:23 AM 42.8 °F 37.5 °F 39.2 °F 87% 29.83 in 2.0 mi East 9.2 mph - N/A   Overcast
3:40 AM 42.8 °F 37.5 °F 41.0 °F 93% 29.82 in 1.8 mi ENE 9.2 mph 18.4 mph 0.01 in Rain Light Rain
3:53 AM 42.1 °F 37.7 °F 41.0 °F 96% 29.81 in 2.0 mi East 6.9 mph - 0.02 in Rain Light Rain
4:05 AM 42.8 °F 38.6 °F 41.0 °F 93% 29.81 in 3.0 mi ENE 6.9 mph - 0.00 in Rain Light Rain
4:53 AM 43.0 °F 37.2 °F 41.0 °F 93% 29.79 in 4.0 mi ENE 10.4 mph - 0.00 in   Overcast
5:53 AM 43.0 °F 38.2 °F 41.0 °F 93% 29.78 in 3.0 mi East 8.1 mph - N/A   Overcast
6:01 AM 42.8 °F 37.0 °F 41.0 °F 93% 29.77 in 2.5 mi East 10.4 mph - N/A   Overcast
6:12 AM 42.8 °F 38.0 °F 41.0 °F 93% 29.77 in 2.0 mi East 8.1 mph - N/A   Overcast
6:48 AM 42.8 °F 39.3 °F 41.0 °F 93% 29.79 in 2.5 mi ENE 5.8 mph - 0.01 in   Overcast
6:53 AM 42.1 °F 37.7 °F 41.0 °F 96% 29.77 in 2.5 mi East 6.9 mph - 0.01 in   Overcast
7:01 AM 42.8 °F 39.3 °F 41.0 °F 93% 29.80 in 2.0 mi ENE 5.8 mph - 0.00 in Rain Light Rain
7:53 AM 42.1 °F 38.4 °F 41.0 °F 96% 29.78 in 2.0 mi East 5.8 mph 26.5 mph 0.00 in   Overcast
8:10 AM 42.8 °F 38.6 °F 41.0 °F 93% 29.77 in 1.5 mi East 6.9 mph 18.4 mph N/A   Overcast
8:23 AM 42.8 °F 38.6 °F 41.0 °F 93% 29.79 in 1.0 mi ENE 6.9 mph - N/A   Overcast
8:33 AM 42.8 °F 38.6 °F 41.0 °F 93% 29.79 in 1.2 mi East 6.9 mph - 0.01 in   Overcast
8:40 AM 42.8 °F 38.0 °F 41.0 °F 93% 29.78 in 1.0 mi East 8.1 mph - 0.01 in Rain Light Rain
8:53 AM 42.1 °F 39.2 °F 41.0 °F 96% 29.80 in 1.0 mi East 4.6 mph - 0.01 in Rain Light Rain
9:07 AM 42.8 °F 40.1 °F 41.0 °F 93% 29.80 in 1.2 mi ENE 4.6 mph - 0.01 in   Overcast
9:46 AM 42.8 °F 40.1 °F 41.0 °F 93% 29.79 in 1.8 mi ESE 4.6 mph - 0.01 in   Overcast
9:53 AM 43.0 °F - 41.0 °F 93% 29.80 in 1.2 mi Calm Calm - 0.01 in   Overcast
10:31 AM 42.8 °F 39.3 °F 41.0 °F 93% 29.77 in 1.8 mi ESE 5.8 mph - N/A   Overcast
10:43 AM 42.8 °F - 42.8 °F 100% 29.79 in 1.5 mi Calm Calm - 0.00 in Rain Light Rain
10:53 AM 43.0 °F - 42.1 °F 97% 29.80 in 1.2 mi Calm Calm - 0.00 in   Overcast
11:12 AM 44.6 °F 42.2 °F 42.8 °F 93% 29.82 in 2.0 mi SSW 4.6 mph - 0.01 in   Overcast
11:29 AM 44.6 °F - 42.8 °F 93% 29.78 in 3.0 mi Calm Calm - 0.01 in Rain Light Rain
11:53 AM 45.0 °F 41.8 °F 43.0 °F 93% 29.79 in 6.0 mi SW 5.8 mph - 0.01 in   Overcast
12:30 PM 46.4 °F 40.7 °F 42.8 °F 87% 29.79 in 10.0 mi WSW 12.7 mph - N/A   Overcast
12:53 PM 48.0 °F - 45.0 °F 89% 29.76 in 10.0 mi West 10.4 mph 17.3 mph N/A   Mostly Cloudy
1:05 PM 48.2 °F - 44.6 °F 87% 29.77 in 10.0 mi West 11.5 mph 19.6 mph N/A   Mostly Cloudy
1:18 PM 48.2 °F - 44.6 °F 87% 29.77 in 10.0 mi West 12.7 mph 28.8 mph N/A   Mostly Cloudy
1:41 PM 50.0 °F - 42.8 °F 76% 29.76 in 10.0 mi West 20.7 mph 26.5 mph N/A   Overcast
1:53 PM 50.0 °F - 42.1 °F 74% 29.76 in 10.0 mi West 13.8 mph 27.6 mph N/A   Overcast
2:11 PM 50.0 °F - 42.8 °F 76% 29.76 in 10.0 mi West 15.0 mph 27.6 mph N/A   Overcast
2:53 PM 48.0 °F - 41.0 °F 77% 29.77 in 10.0 mi West 11.5 mph 26.5 mph N/A   Overcast
3:07 PM 48.2 °F - 39.2 °F 71% 29.76 in 10.0 mi West 11.5 mph 24.2 mph N/A   Overcast
3:28 PM 46.4 °F 39.2 °F 39.2 °F 76% 29.78 in 10.0 mi West 18.4 mph 28.8 mph N/A   Overcast
3:53 PM 46.0 °F 38.5 °F 39.9 °F 79% 29.79 in 10.0 mi West 19.6 mph 26.5 mph N/A   Overcast
4:53 PM 45.0 °F 39.3 °F 39.0 °F 80% 29.81 in 10.0 mi West 11.5 mph 24.2 mph 0.00 in Rain Light Rain
5:53 PM 44.1 °F 39.5 °F 39.9 °F 85% 29.83 in 8.0 mi West 8.1 mph 17.3 mph 0.00 in Rain Light Rain
6:35 PM 44.6 °F 38.8 °F 39.2 °F 81% 29.85 in 10.0 mi West 11.5 mph - 0.00 in   Overcast
6:53 PM 44.1 °F 38.1 °F 39.0 °F 82% 29.85 in 10.0 mi West 11.5 mph 18.4 mph 0.00 in   Overcast
7:53 PM 43.0 °F 36.8 °F 35.1 °F 74% 29.88 in 10.0 mi NW 11.5 mph 20.7 mph N/A   Scattered Clouds
8:53 PM 41.0 °F 33.9 °F 33.1 °F 73% 29.90 in 10.0 mi WNW 12.7 mph - N/A   Partly Cloudy
9:53 PM 39.0 °F 34.8 °F 33.1 °F 79% 29.92 in 10.0 mi West 5.8 mph - N/A   Clear
10:53 PM 37.0 °F 31.6 °F 32.0 °F 82% 29.94 in 10.0 mi West 6.9 mph - N/A   Clear
11:53 PM 36.0 °F 30.3 °F 30.9 °F 82% 29.95 in 10.0 mi WNW 6.9 mph - N/A   Clear